Orbital Elements at Epoch 2459200.5 (2020-Dec-17.0) TDB
Reference: JPL 19 (heliocentric ecliptic J2000)
Element | Value | Uncertainty (1-sigma) | Units |
e | .09298856449715069 | 5.4996e-08 | |
a | 2.736649346010168 | 2.3352e-08 | au |
q | 2.482172251792617 | 1.5709e-07 | au |
i | 1.163104756342938 | 4.6578e-06 | deg |
node | 243.1426625633558 | 0.00030624 | deg |
peri | 104.346550835681 | 0.00030732 | deg |
M | 235.8399426663584 | 2.8137e-05 | deg |
tp | 2459770.804188377642 (2022-Jul-10.30418838) | 0.00013191 | TDB |
period | 1653.587411483273 4.53 | 2.1165e-05 5.795e-08 | d yr |
n | .2177084788502828 | 2.7866e-09 | deg/d |
Q | 2.99112644022772 | 2.5524e-08 | au |
|
| | Orbit Determination Parameters
Additional Information
|